DateTimeUTC,F1_A11,F1_S11,BsB_S11,BsG_S11,BsR_S11,BbsB_S11,BbsG_S11,BbsR_S11,BaB_A11,BaG_A11,BaR_A11,Tu_S11,T_S11,Uu_S11,U_S11,P_S11,T1_A11
2021-08-01T05:00:00Z,00000200,20000000,,,,,,,0000.27,-000.20,-000.58,18.5,25.2,09.8,06.5,0679.1,31.0
2021-08-01T05:01:00Z,00000200,20000000,,,,,,,-000.24,-000.07,0000.14,18.5,25.2,09.8,06.5,0679.1,31.0
2021-08-01T05:02:00Z,00000200,20000000,,,,,,,0000.19,0000.02,0000.18,18.4,25.2,09.8,06.5,0679.1,31.0
2021-08-01T05:03:00Z,00000200,60000000,,,,,,,0000.66,0000.88,0000.54,18.4,25.2,09.8,06.5,0679.1,31.0
2021-08-01T05:04:00Z,00000200,40000000,0003.99,0002.55,0001.43,0000.74,0000.38,0000.06,0001.26,0000.62,0000.58,18.5,25.0,10.0,06.7,0680.1,31.0
2021-08-01T05:05:00Z,00000200,00000000,0004.43,0003.19,0001.40,0000.72,0000.27,0000.30,0000.84,0001.26,0000.91,18.6,25.0,10.0,06.8,0680.2,31.0
2021-08-01T05:06:00Z,00000200,00000000,0003.74,0002.91,0001.59,0000.17,0000.55,0000.26,0000.72,0000.66,0000.33,18.6,25.0,10.1,06.8,0680.2,31.0
2021-08-01T05:07:00Z,00000200,00000000,0004.03,0002.40,0001.79,0000.87,0000.46,0000.61,0000.85,0000.98,0000.66,18.6,25.0,10.1,06.8,0680.1,31.0
2021-08-01T05:08:00Z,00000200,00000000,0002.37,0001.91,0000.91,0000.89,0000.34,0000.50,0000.83,0000.51,0000.65,18.6,25.0,10.1,06.8,0680.1,31.0
2021-08-01T05:09:00Z,00000200,00000000,0003.23,0002.24,0000.99,0001.00,0000.17,0000.43,0000.90,0000.66,0000.46,18.6,25.0,10.1,06.9,0680.1,31.0
2021-08-01T05:10:00Z,00000200,00000000,0003.25,0002.00,0000.80,0000.97,0000.65,0000.08,0000.73,0000.55,0000.52,18.6,24.9,10.1,06.8,0680.2,31.0
2021-08-01T05:11:00Z,00000200,00000000,0003.20,0002.43,0001.50,0000.55,0000.39,0000.51,0001.08,0001.18,0000.75,18.5,24.9,10.1,06.9,0680.2,31.0
2021-08-01T05:12:00Z,00000200,00000000,0004.36,0002.81,0002.27,0000.02,0000.57,0000.59,0001.13,0001.04,0000.65,18.5,24.9,10.1,06.9,0680.2,31.0
2021-08-01T05:13:00Z,00000200,00000000,0004.27,0002.90,0001.74,0000.84,0000.29,0000.50,0000.76,0001.15,0000.86,18.5,24.9,10.3,07.0,0680.2,31.0
2021-08-01T05:14:00Z,00000200,00000000,0004.46,0003.46,0001.69,0000.80,0000.31,0000.49,0001.37,0000.77,0001.14,18.5,24.9,10.2,06.9,0680.2,31.0
2021-08-01T05:15:00Z,00000200,00000000,0004.05,0002.70,0001.56,0000.80,0000.42,0000.47,0001.45,0001.16,0000.40,18.5,24.9,10.2,06.9,0680.2,31.0
2021-08-01T05:16:00Z,00000200,00000000,0003.79,0002.92,0001.73,0000.68,0000.32,0000.50,0001.20,0001.02,0001.13,18.5,24.9,10.2,06.9,0680.2,31.0
2021-08-01T05:17:00Z,00000200,00000000,0005.16,0003.06,0002.00,0000.59,0000.44,0000.35,0001.28,0001.38,0000.94,18.6,24.9,10.1,06.9,0680.2,31.0
2021-08-01T05:18:00Z,00000200,00000000,0003.93,0001.94,0001.54,0000.72,0000.32,0000.41,0001.08,0001.03,0000.94,18.7,24.9,10.2,06.9,0680.1,31.0
2021-08-01T05:19:00Z,00000200,00000000,0004.18,0002.86,0002.02,0000.66,0000.16,0000.43,0000.82,0000.79,0000.30,18.7,25.0,10.2,06.9,0680.2,31.0
2021-08-01T05:20:00Z,00000200,00000000,0004.36,0002.87,0001.56,0000.84,0000.14,0000.28,0001.58,0001.33,0000.88,18.8,25.0,10.1,06.9,0680.2,31.0
2021-08-01T05:21:00Z,00000200,00000000,0003.42,0001.93,0001.08,0000.58,0000.20,0000.42,0000.74,0000.55,0000.66,18.9,25.0,10.0,06.9,0680.1,31.0
2021-08-01T05:22:00Z,00000200,00000000,0002.82,0001.82,0001.00,0000.51,0000.26,0000.11,0000.47,0000.71,0000.28,18.9,25.0,09.9,06.8,0680.2,31.0
2021-08-01T05:23:00Z,00000200,00000000,0002.64,0002.09,0001.31,0000.67,0000.28,0000.35,0000.50,0000.26,0000.62,18.9,25.1,09.9,06.8,0680.1,31.0
2021-08-01T05:24:00Z,00000200,00000000,0003.84,0003.09,0001.68,0000.47,0000.49,0000.48,0001.17,0000.94,0000.52,18.8,25.0,09.9,06.7,0680.2,31.0
2021-08-01T05:25:00Z,00000200,00000000,0003.62,0001.83,0001.31,0000.55,0000.22,0000.34,0000.73,0000.94,0000.28,18.8,25.0,09.9,06.8,0680.1,31.0
2021-08-01T05:26:00Z,00000200,00000000,0002.65,0001.32,0000.83,0000.61,0000.27,0000.21,0000.08,0000.24,0000.08,18.8,25.0,09.7,06.6,0680.2,31.0
2021-08-01T05:27:00Z,00000200,00000000,0003.40,0002.27,0001.49,0000.32,0000.37,0000.44,0001.09,0000.78,0000.75,18.8,25.0,09.7,06.6,0680.2,31.0
2021-08-01T05:28:00Z,00000200,00000000,0003.25,0001.99,0001.30,0000.90,0000.43,0000.56,0000.72,0000.30,0000.66,18.8,25.0,09.7,06.6,0680.2,31.0
2021-08-01T05:29:00Z,00000200,00000000,0003.29,0001.88,0001.17,0000.04,0000.17,0000.37,0000.98,0000.82,0000.28,18.8,25.0,09.6,06.6,0680.2,31.0
2021-08-01T05:30:00Z,00000200,00000000,0002.35,0001.34,0000.94,0000.41,0000.31,0000.08,0000.06,0000.72,0000.45,18.8,25.0,09.6,06.5,0680.2,31.0
2021-08-01T05:31:00Z,00000200,00000000,0002.62,0001.30,0000.76,0000.33,0000.22,0000.68,0000.69,0000.80,0000.40,18.7,25.0,09.6,06.5,0680.2,31.0
2021-08-01T05:32:00Z,00000200,00000000,0003.13,0001.67,0001.17,-000.04,0000.29,-000.03,0001.13,0000.19,0000.82,18.7,25.0,09.6,06.6,0680.2,31.0
2021-08-01T05:33:00Z,00000200,00000000,0002.29,0001.80,0000.79,0000.55,0000.24,0000.25,0000.54,0000.74,0000.44,18.8,25.0,09.6,06.6,0680.2,31.0
2021-08-01T05:34:00Z,00000200,00000000,0002.24,0001.67,0001.16,0000.73,0000.25,0000.23,0000.52,0000.40,0000.28,18.8,25.0,09.8,06.7,0680.1,31.0
2021-08-01T05:35:00Z,00000200,00000000,0002.85,0001.33,0000.77,0000.15,0000.12,0000.27,0000.64,0000.66,0000.67,18.8,25.0,09.7,06.6,0680.2,31.0
2021-08-01T05:36:00Z,00000200,00000000,0001.90,0001.52,0000.76,0000.25,0000.01,0000.36,0000.73,0000.71,0000.32,18.8,25.0,09.6,06.6,0680.2,31.0
2021-08-01T05:37:00Z,00000200,00000000,0003.87,0001.75,0001.10,0000.74,0000.15,0000.53,0000.64,0000.52,0000.29,18.8,25.0,09.7,06.6,0680.2,31.0
2021-08-01T05:38:00Z,00000200,00000000,0001.89,0001.64,0000.71,0000.71,0000.32,-000.12,0000.31,0000.47,0000.45,18.8,25.0,09.8,06.7,0680.1,31.0
2021-08-01T05:39:00Z,00000200,00000000,0002.68,0001.46,0001.27,0000.03,0000.44,0000.33,0000.92,0000.84,0000.44,18.8,25.0,09.6,06.6,0680.1,31.0
2021-08-01T05:40:00Z,00000200,00000000,0002.86,0001.70,0000.96,0000.82,0000.11,0000.27,0000.59,0000.24,0000.18,18.8,25.0,09.7,06.6,0680.1,31.0
2021-08-01T05:41:00Z,00000200,00000000,0002.37,0001.98,0001.10,0000.65,0000.09,0000.30,0000.59,0000.55,0000.62,18.8,25.0,09.6,06.6,0680.1,31.0
2021-08-01T05:42:00Z,00000200,00000000,0001.80,0001.21,0000.36,0000.38,0000.09,0000.34,0000.16,0000.42,0000.13,18.8,25.0,09.6,06.5,0680.1,31.0
2021-08-01T05:43:00Z,00000200,00000000,0002.11,0001.72,0000.32,0000.23,0000.05,0000.16,0000.58,0000.34,0000.38,18.8,25.0,09.5,06.5,0680.1,31.0
2021-08-01T05:44:00Z,00000200,00000000,0002.13,0001.84,0001.18,0000.79,0000.28,0000.09,0000.57,0000.59,0000.44,18.7,25.0,09.6,06.5,0680.1,31.0
2021-08-01T05:45:00Z,00000200,00000000,0001.51,0001.50,0000.67,0000.27,-000.06,0000.32,0000.79,0000.54,0000.38,18.7,25.0,09.6,06.5,0680.0,31.0
2021-08-01T05:46:00Z,00000200,00000000,0002.06,0001.63,0000.68,0000.18,0000.07,-000.03,0000.37,0000.44,0000.22,18.7,25.0,09.5,06.5,0680.1,31.0
2021-08-01T05:47:00Z,00000200,00000000,0002.37,0001.48,0000.75,0000.17,0000.20,0000.50,0000.36,0000.47,0000.56,18.7,25.0,09.5,06.5,0680.1,31.0
2021-08-01T05:48:00Z,00000200,00000000,0002.26,0001.48,0000.79,0000.36,0000.27,0000.52,0000.81,0000.58,0000.24,18.7,25.0,09.6,06.5,0680.1,31.0
2021-08-01T05:49:00Z,00000200,00000000,0002.25,0001.56,0000.94,0000.74,0000.37,0000.26,0000.58,0000.40,0000.62,18.7,25.0,09.6,06.5,0680.1,31.0
2021-08-01T05:50:00Z,00000200,00000000,0002.56,0001.57,0000.97,0000.75,0000.46,0000.14,0000.72,0000.75,0000.36,18.7,24.9,09.6,06.5,0680.1,31.0
2021-08-01T05:51:00Z,00000200,00000000,0003.23,0001.88,0000.98,0000.93,0000.17,0000.29,0000.76,0000.56,0000.32,18.6,24.9,09.6,06.5,0680.1,31.0
2021-08-01T05:52:00Z,00000200,00000000,0002.86,0001.83,0001.28,0000.75,0000.26,0000.27,0000.70,0000.81,0000.66,18.6,24.9,09.5,06.5,0680.1,31.0
2021-08-01T05:53:00Z,00000200,00000000,0002.96,0001.81,0000.64,0000.03,0000.30,0000.04,0000.24,0000.41,0000.54,18.6,24.9,09.6,06.5,0680.1,31.0
2021-08-01T05:54:00Z,00000200,00000000,0000.84,0000.87,0000.70,0000.03,0000.21,0000.24,0000.69,0000.57,0000.07,18.6,24.9,09.7,06.6,0680.1,31.0
2021-08-01T05:55:00Z,00000200,00000000,0002.00,0001.32,0000.42,0001.61,0000.62,0000.25,0000.47,0000.19,0000.17,18.6,24.9,09.6,06.5,0680.1,31.0
2021-08-01T05:56:00Z,00000200,00000000,0002.47,0001.35,0000.78,0000.68,0000.31,0000.24,0000.67,0000.59,0000.70,18.6,24.9,09.6,06.5,0680.0,31.0
2021-08-01T05:57:00Z,00000200,40000000,,,,,,,0000.23,0000.42,0000.35,18.6,25.0,10.1,06.8,0680.1,31.0
2021-08-01T05:58:00Z,00000200,60000000,,,,,,,-000.05,-000.39,-000.25,18.3,25.1,09.8,06.5,0679.1,31.0
2021-08-01T05:59:00Z,00000200,20000000,,,,,,,-000.04,0000.07,-000.33,18.3,25.2,09.6,06.3,0679.1,31.0
